[Iaude] MPEC C137: 2024 CA3 [a=2.53,e=0.75,i=27.7,H=23.4]

mpec at cfa.harvard.edu mpec at cfa.harvard.edu
Tue Feb 13 00:18:29 EST 2024


M.P.E.C. 2024-C137                            Issued 2024 February 13, 05:16 UT

     The Minor Planet Electronic Circulars contain information on unusual
         minor planets, routine data on comets and natural satellites,
         and occasional editorial announcements.  They are published
    on behalf of Division F of the International Astronomical Union by the
          Minor Planet Center, Smithsonian Astrophysical Observatory,
                          Cambridge, MA 02138, U.S.A.
			  
             Prepared using the Tamkin Foundation Computer Network

                              MPC at CFA.HARVARD.EDU
            URL https://www.minorplanetcenter.net/    ISSN 1523-6714

                                    2024 CA3                                    


Observations:
     K24C03A* C2024 02 10.31148108 55 14.792+11 32 07.46         20.57wXEC137F52
     K24C03A  C2024 02 10.32448508 55 14.672+11 34 13.65         20.64wXEC137F52
     K24C03A  C2024 02 10.33758308 55 14.524+11 36 20.90         20.35wXEC137F52
     K24C03A  C2024 02 10.35067108 55 14.362+11 38 27.08         20.70wXEC137F52
     K24C03A  C2024 02 10.52881808 55 12.073+12 06 41.69         20.36GVEC137F52
     K24C03A  C2024 02 10.52963708 55 12.073+12 06 49.58         20.28GVEC137F52
     K24C03A |C2024 02 11.12619008 55 18.250+13 37 23.80         20.8 GVEC137807
     K24C03A |C2024 02 11.13067008 55 18.240+13 38 03.30         20.8 GVEC137807
     K24C03A |C2024 02 11.13521008 55 18.180+13 38 42.90         20.8 GVEC137807
     K24C03A |C2024 02 11.13954008 55 18.100+13 39 20.60         20.9 GVEC137807
     K24C03A KC2024 02 13.18391408 55 32.90 +17 58 40.3          21.1 GXEC137858
     K24C03A KC2024 02 13.19508008 55 32.84 +17 59 55.7          20.8 GXEC137858

Observer details:
807 Cerro Tololo Observatory, La Serena.  Observers T. Linder, R. Holmes.
    0.61-m f/11 Ritchey-Chretien + CCD.
858 Tebbutt Observatory, Edgewood.  Observer F. B. Zoltowski.  0.51-m f/8.1
    Schmidt-Cassegrain + CCD.
F52 Pan-STARRS 2, Haleakala.  Observers J. Herman, T. Lowe, P. Minguez, A.
    Schultz, I. Smith.  Measurers K. Chambers, T. de Boer, J. Fairlamb, H.
    Gao, M. Huber, C.-C. Lin, E. Magnier, Y. Ramanjooloo, R. Wainscoat, R.
    Weryk.  1.8-m Ritchey-Chretien + CCD.

Orbital elements:
2024 CA3                                                 Earth MOID = 0.0003 AU
Epoch 2023 Sept. 13.0 TT = JDT 2460200.5                MPC                     
M 337.39160              (2000.0)            P               Q                  
n   0.24454915     Peri.  263.63466     +0.63779090     -0.71277534             
a   2.5325534      Node   141.17748     +0.74899010     +0.66230054             
e   0.7525803      Incl.   27.74458     -0.17954552     +0.23088807             
P   4.03           H   23.49          G   0.15           U   9                  
Residuals in seconds of arc
240210 F52  0.2-  0.3-    240210 F52  0.1-  0.0     240211 807  0.1+  0.2+
240210 F52  0.1+  0.3-    240210 F52  0.0   0.2+    240211 807  0.4-  0.2+
240210 F52  0.1+  0.1+    240211 807  0.3-  0.4-    240213 858  0.0   0.2-
240210 F52  0.1+  0.3-    240211 807  0.3+  0.1+    240213 858  0.2-  0.2+

Ephemeris:
2024 CA3                 a,e,i = 2.53, 0.75, 28                  q = 0.6266
Date    TT    R. A. (2000) Decl.     Delta      r    Elong.  Phase     V
2024 01 14    20 53 51.5 -69 36 17   0.2635  0.8365    49.4   116.7    24.8
...
2024 01 29    08 54 25.2 -59 01 21   0.1104  1.0149   102.7    71.2    21.2
...
2024 02 06    08 54 57.4 -04 13 49   0.1353  1.1136   159.2    18.3    20.3
...
2024 02 12    08 55 22.9 +15 36 28   0.2034  1.1875   169.3     8.9    21.0
2024 02 13    08 55 30.2 +17 38 03   0.2165  1.1998   167.9     9.9    21.2
2024 02 14    08 55 38.6 +19 25 27   0.2300  1.2121   166.3    11.1    21.4
...
2024 02 20    08 56 53.7 +26 43 55   0.3161  1.2852   156.8    17.6    22.5
...
2024 02 28    08 59 42.3 +31 30 10   0.4409  1.3813   147.0    23.0    23.5
...
2024 03 14    09 08 24.5 +34 34 06   0.6971  1.5557   133.0    27.9    24.9

A. U. Tomatic                (C) Copyright 2024 MPC           M.P.E.C. 2024-C137





More information about the Iaude mailing list